Flag for U.S.A. Weather past 2 weeks in Clearwater, Florida, U.S.A.

Now
76 °F

Clear.


Feels Like: 77 °F
Forecast: 70 / 82 °F
Wind: 7 mph from Northeast

Location: St. Petersburg / Clearwater International Airport

Current Time: Oct 21, 2014 at 12:20:37 AM

Latest Report: Oct 20, 2014 at 11:53 PM


Visibility: 10 mi

Pressure: 29.97 "Hg

Humidity: 72%

Dew point: 66 °F

Location of ClearwaterLocation

Historic Weather in Clearwater — Graph

°F

Clearwater temperature yesterday

Maximum temperature yesterday: 84 °F (at 2:53 PM)
Minimum temperature yesterday: 69 °F (at 6:53 AM)
Average temperature yesterday: 76 °F

Past Weeks' High & Low Weather Summary

 TemperatureHumidityPressure
High90 °F (Oct 13, 3:53 PM)96% (Oct 14, 8:53 PM)30.15 "Hg (Oct 14, 8:53 PM)
Low62 °F (Oct 18, 3:53 AM)38% (Oct 17, 2:53 PM)29.91 "Hg (Oct 16, 4:53 AM)
Average77 °F73%30.01 "Hg
* Reported Oct 5 10:53 PM — Oct 20 10:53 PM, Clearwater, Weather by CustomWeather, © 2014

Note: Actual official high and low records may vary slightly from our data, if they occured in-between our weather recording intervals... More about our weather records

Advertising

Clearwater weather history for previous 24 hours

 ConditionsComfort  
Time TempWeatherWind HumidityBarometerVisibility
10:53 PM
Oct 20
76 °FClear.3 mph69%29.98 "Hg10 mi
9:53 PM75 °FPassing clouds.5 mph74%29.98 "Hg10 mi
8:53 PM76 °FClear.6 mph72%29.96 "Hg10 mi
7:53 PM77 °FSunny.8 mph66%29.95 "Hg10 mi
6:53 PM78 °FPartly sunny.5 mph64%29.94 "Hg10 mi
5:53 PM81 °FPassing clouds.5 mph54%29.94 "Hg10 mi
4:53 PM84 °FSunny.5 mph48%29.95 "Hg10 mi
3:53 PM82 °FPassing clouds.6 mph55%29.96 "Hg10 mi
2:53 PM84 °FPassing clouds.6 mph48%29.97 "Hg10 mi
1:53 PM83 °FSunny.7 mph51%29.98 "Hg10 mi
12:53 PM82 °FSunny.8 mph58%30.01 "Hg10 mi
11:53 AM79 °FPassing clouds.7 mph69%30.04 "Hg10 mi
10:53 AM78 °FSunny.6 mph71%30.05 "Hg10 mi
9:53 AM74 °FSunny.6 mph79%30.06 "Hg10 mi
8:53 AM72 °FSunny.6 mph81%30.05 "Hg10 mi
7:53 AM70 °FClear.7 mph87%30.03 "Hg10 mi
6:53 AM69 °FClear.6 mph87%30.03 "Hg10 mi
5:53 AM70 °FClear.7 mph84%30.02 "Hg10 mi
4:53 AM70 °FClear.No wind84%30.01 "Hg10 mi
3:53 AM71 °FClear.5 mph81%30.01 "Hg10 mi
2:53 AM71 °FClear.7 mph84%30.02 "Hg10 mi
1:53 AM72 °FClear.6 mph81%30.03 "Hg10 mi
12:53 AM74 °FClear.9 mph76%30.03 "Hg10 mi
Weather by CustomWeather, © 2014

See weather overviewHow to use our weather pages